{"data":{"norad_id":67770,"epoch":"2026-05-25T05:02:57.372864Z","epoch_age_seconds":56767,"freshness":"FRESH","line1":"1 67770U 26030G   26145.21038626  .00002784  00000+0  39421-3 0  9996","line2":"2 67770  51.8971 222.2417 0000400  98.6476 261.4532 14.79918831 16689","mean_motion":14.79918831,"eccentricity":4.0e-5,"inclination_deg":51.8971,"raan_deg":222.2417,"arg_perigee_deg":98.6476,"mean_anomaly_deg":261.4532,"bstar":0.00039421,"rev_number":1668,"period_min":97.302633755054,"perigee_km":629.30004885947,"apogee_km":629.86066624807,"semimajor_km":7007.7173575538,"source":"CELESTRAK","updated_at":"2026-05-25T13:38:07.255491Z"}}